Regional Weather Roundup
Issued by NWS

Home | Current Version | Previous Version | Graphics & Text | Print | Product List | Glossary On
Versions: 1 2 3 4 5 6 7 8 9 10 11 12 13 14 15 16 17 18 19 20 21 22 23 24 25 26 27 28 29 30 31 32 33 34 35 36 37 38 39 40 41 42 43 44 45 46 47 48 49 50
563
ASUS45 KBOI 300110
RWRID

IDAHO REGIONAL WEATHER ROUNDUP
NATIONAL WEATHER SERVICE BOISE ID
700 PM MDT MON MAY 29 2017

NOTE: "FAIR" INDICATES FEW OR NO CLOUDS BELOW 12000 FEET
WITH NO SIGNIFICANT WEATHER AND/OR OBSTRUCTIONS TO VISIBILITY

IDZ012-014-300200-
SOUTHWEST IDAHO


CITY           SKY/WX    TMP DP  RH WIND       PRES   REMARKS
BOISE          SUNNY     87  33  14 S5        29.95F
CALDWELL       SUNNY     88  42  20 NW8       29.93F
MOUNTAIN HOME  SUNNY     87  29  12 SE5       29.96F
$$

IDZ016-017-300200-
SOUTHCENTRAL IDAHO


CITY           SKY/WX    TMP DP  RH WIND       PRES   REMARKS
BURLEY         FAIR      79  37  22 E6        30.03F
JEROME         SUNNY     80  34  19 NE9       30.04F
TWIN FALLS     SUNNY     79  36  21 NE7       30.04F
$$

IDZ019>023-300200-
SOUTHEAST IDAHO


CITY           SKY/WX    TMP DP  RH WIND       PRES   REMARKS
IDAHO FALLS    SUNNY     75  37  25 NW5       30.11F
POCATELLO      MOSUNNY   77  40  26 NW3       30.08F
REXBURG        SUNNY     73  33  23 W6        30.10F
$$

IDZ006-010-011-018-031-032-300200-
CENTRAL IDAHO MOUNTAINS


CITY           SKY/WX    TMP DP  RH WIND       PRES   REMARKS
MCCALL         FAIR      75  30  19 W6        30.09F
HAILEY         MOSUNNY   72  45  37 S8        30.14F
STANLEY          N/A     72  28  19 VRB6      30.18F
SALMON         SUNNY     75  46  35 SW5       30.00S
CHALLIS        PTSUNNY   77  30  17 CALM      30.08S
$$

IDZ002-004-006-007-026-300200-
NORTHERN IDAHO


CITY           SKY/WX    TMP DP  RH WIND       PRES   REMARKS
LEWISTON       SUNNY     91  43  18 VRB5      29.88F
LOWELL           N/A     77  47  34 CALM      29.88F
COEUR D`ALENE  FAIR      86  41  20 W7        29.95F
MULLAN PASS    MOSUNNY   69  32  25 CALM      30.17F
$$




USA.gov is the U.S. government's official web portal to all federal, state and local government web resources and services.